Weather History for GMAD - February, 2013

Change the Weather History Date:

Sunday, February 24, 2013

  Actual Average Record
Temperature  
Mean Temperature 56 °F -  
Max Temperature 69 °F - - ()
Min Temperature 44 °F - - ()
Degree Days  
Heating Degree Days 8    
Growing Degree Days 6 (Base 50)    
Moisture  
Dew Point 47 °F    
Average Humidity 66    
Maximum Humidity 93    
Minimum Humidity 32    
Precipitation  
Precipitation 0.00 in - - ()
Sea Level Pressure  
Sea Level Pressure 30.03 in    
Wind  
Wind Speed 4 mph ()    
Max Wind Speed 12 mph    
Max Gust Speed -    
Visibility 6.0 miles    
Events      
T = Trace of Precipitation, MM = Missing Value Source: Averaged Metar Reports

Daily Weather History Graph

Daily Weather History Graph

Search for Another Location

Airport or City:

Trip Planner

Search our weather history database for the weather conditions in past years. The results will help you decide how hot, cold, wet, or windy it might be!

Date:

Astronomy

Feb. 24, 2013 Rise Set
Actual Time 7:09 AM WET 6:32 PM WET
Civil Twilight 6:44 AM WET 6:57 PM WET
Nautical Twilight 6:16 AM WET 7:25 PM WET
Astronomical Twilight 5:49 AM WET 7:52 PM WET
Moon 5:31 PM WET (2/24) 5:56 AM WET (2/24)
Length of Visible Light 12h 12m
Length of Day
11h 23m
Waxing Gibbous, 98% of the Moon is Illuminated
Feb 24
Waxing Gibbous
Feb 25
Full
Mar 4
Last Quarter
Mar 11
New
Mar 19
First Quarter

Hourly Weather History & Observations

Time (WET) Temp. Windchill Dew Point Humidity Pressure Visibility Wind Dir Wind Speed Gust Speed Precip Events Conditions
12:00 AM 57 °F - 50 °F 70% 30.05 in 6 mi South 10.4 mph - -  
12:00 AM 57.2 °F - 50.0 °F 77% 30.04 in - South 10.4 mph - N/A   Clear
1:00 AM 55.4 °F - 50.0 °F 82% 30.04 in - Calm Calm - N/A   Clear
2:00 AM 53.6 °F - 48.2 °F 82% 30.04 in - NE 3.5 mph - N/A   Clear
3:00 AM 50 °F - 46 °F 81% 30.06 in 6 mi East 4.6 mph - -  
3:00 AM 50.0 °F - 46.4 °F 87% 30.04 in - East 3.5 mph - N/A   Clear
4:00 AM 50.0 °F - 46.4 °F 87% 30.04 in - ESE 3.5 mph - N/A   Clear
5:00 AM 48.2 °F - 46.4 °F 93% 30.04 in - Calm Calm - N/A   Clear
6:00 AM 48 °F - 45 °F 86% 30.06 in 6 mi Calm Calm - -  
6:00 AM 48.2 °F - 44.6 °F 87% 30.04 in - Calm Calm - N/A   Clear
7:00 AM 44.6 °F 42.2 °F 42.8 °F 93% 30.06 in - NE 4.6 mph - N/A   Clear
9:00 AM 53 °F - 48 °F 76% 30.09 in 6 mi Calm Calm - -  
9:00 AM 53.6 °F - 48.2 °F 82% 30.06 in - Calm Calm - N/A   Clear
10:00 AM 60.8 °F - 50.0 °F 68% 30.06 in - ENE 5.8 mph - N/A   Clear
11:00 AM 62.6 °F - 48.2 °F 59% 30.06 in - East 3.5 mph - N/A   Clear
12:00 PM 67 °F - 46 °F 35% 30.07 in 6 mi Calm Calm - -  
12:00 PM 66.2 °F - 46.4 °F 49% 30.06 in - Calm Calm - N/A   Clear
1:00 PM 68.0 °F - 48.2 °F 49% 30.04 in - WSW 4.6 mph - N/A   Clear
2:00 PM 68.0 °F - 50.0 °F 52% 30.01 in - West 10.4 mph - N/A   Clear
3:00 PM 67 °F - 48 °F 39% 29.99 in 6 mi West 9.2 mph - -  
3:00 PM 68.0 °F - 48.2 °F 49% 29.98 in - West 9.2 mph - N/A   Clear
4:00 PM 68.0 °F - 48.2 °F 49% 29.98 in 6.2 mi West 11.5 mph - N/A   Unknown
5:00 PM 68.0 °F - 44.6 °F 43% 29.98 in - WSW 9.2 mph - N/A   Clear
6:00 PM 66 °F - 43 °F 32% 29.98 in 6 mi SW 5.8 mph - -  
6:00 PM 66.2 °F - 42.8 °F 43% 29.98 in - SW 5.8 mph - N/A   Clear
7:00 PM 60.8 °F - 44.6 °F 55% 29.98 in - SSW 3.5 mph - N/A   Clear
8:00 PM 57.2 °F - 44.6 °F 63% 30.01 in - Calm Calm - N/A   Clear
9:00 PM 55 °F - 45 °F 59% 30.03 in 6 mi Calm Calm - -  
9:00 PM 55.4 °F - 44.6 °F 67% 30.01 in - Calm Calm - N/A   Clear
10:00 PM 51.8 °F - 44.6 °F 76% 30.04 in 6.2 mi Calm Calm - N/A   Unknown
11:00 PM 50.0 °F - 44.6 °F 82% 30.01 in - Calm Calm - N/A   Unknown